Regional Weather Roundup
Issued by NWS

Home | Current Version | Previous Version | Graphics & Text | Print | Product List | Glossary On
Versions: 1 2 3 4 5 6 7 8 9 10 11 12 13 14 15 16 17 18 19 20 21 22 23 24 25 26 27 28 29 30 31 32 33 34 35 36 37 38 39 40 41 42 43 44 45 46 47 48 49 50
000
ASUS43 KLOT 190610
RWRIL

ILLINOIS REGIONAL WEATHER ROUNDUP
NATIONAL WEATHER SERVICE CHICAGO/ROMEOVILLE IL
100 AM CDT FRI SEP 19 2014

NOTE: "FAIR" INDICATES FEW OR NO CLOUDS BELOW 12,000 FEET WITH NO
SIGNIFICANT WEATHER AND/OR OBSTRUCTIONS TO VISIBILITY.

* THESE STATIONS ARE NOT UNDER NWS QUALITY CONTROL. THEY ALSO MAY NOT
  REPORT WEATHER SUCH AS PRECIPITATION OR FOG.

ILZ001-002-007-009-015-016-024-190700-
NORTHWEST ILLINOIS

CITY           SKY/WX    TMP DP  RH WIND       PRES   REMARKS
MOLINE         CLEAR     54  49  83 E7        30.12S
6HR MIN TEMP:  54; 6HR MAX TEMP:  64;

STERLING*      CLEAR     48  46  93 E5        30.14R
SAVANNA*       CLEAR     56  52  86 E5        30.13S
$$

ILZ003-004-008-010-011-017-018-190700-
NORTH CENTRAL ILLINOIS

CITY           SKY/WX    TMP DP  RH WIND       PRES   REMARKS
ROCKFORD       PTCLDY    53  50  89 E6        30.18R
6HR MIN TEMP:  53; 6HR MAX TEMP:  64;

FREEPORT*      CLEAR     50  49  95 NE3       30.18R FOG
ROCHELLE*      CLEAR     52  51  95 E6        30.14S FOG
DE KALB*       FOG       53  53  98 E10       30.16S VSB 3/4
PERU*          CLEAR     55  53  94 E7        30.14F FOG
$$

ILZ005-006-012>014-019>023-190700-
NORTHEAST ILLINOIS

CITY           SKY/WX    TMP DP  RH WIND       PRES   REMARKS
CHICAGO-OHARE  PTCLDY    58  52  80 NE5       30.16F
6HR MIN TEMP:  57; 6HR MAX TEMP:  62;

CHICAGO-MIDWAY CLEAR     61  58  90 E5        30.15F
6HR MIN TEMP:  60; 6HR MAX TEMP:  63;

AURORA         CLEAR     54  52  93 NE3       30.16R FOG
6HR MIN TEMP:  52; 6HR MAX TEMP:  63;

LANSING*       CLEAR     54  53  97 E3        30.16S FOG
JOLIET*        CLEAR     57  55  93 E6        30.15F FOG
WAUKEGAN       CLEAR     54  53  97 E5        30.16S FOG
6HR MIN TEMP:  49; 6HR MAX TEMP:  56;

DUPAGE AIRPORT CLEAR     56  54  93 E5        30.15S FOG
6HR MIN TEMP:  52; 6HR MAX TEMP:  61;

KANKAKEE*        N/A     52  52  99 NE3       30.16S FOG
WHEELING       CLEAR     53  50  89 CALM      30.18F
6HR MIN TEMP:  53; 6HR MAX TEMP:  59;

MORRIS*          N/A     52  52 100 CALM      30.14F FOG
ROMEOVILLE*    CLEAR     56  56 100 E6        30.14F FOG
NORTHERLY ISL    N/A     62  59  90 E7          N/A
$$

LMZ740>746-190700-
SOUTHERN LAKE MICHIGAN

STATION/POSITION SKY/WX   TEMP    WIND        PRES    VSBY  WAVE
                          AIR SEA DIR/SP/G                  HT/PER
                          (F)     (DEG/KT/KT) (MB)    (MI)  (FT/S)
SOUTHERN BUOY              61 62  120/ 14/ 16 1021.8F         2/ 5
WAUKEGAN HARBOR            61      90/  8/ 10   N/A
HARRISON CRIB              62      90/  8/  9   N/A
BURNHAM HARBOR             62      70/  5/  6   N/A
CALUMET HARBOR             63      80/  4/  7 1020.1F
MICHIGAN CITY              58      90/  9/ 13   N/A
MICHIGAN CITY 6N           61 65  120/ 12/ 17   N/A           2/ 2
ST. JOSEPH                 59 66  110/ 14/ 17   N/A           2/ 2
$$

ILZ025>027-034>036-040-047-049-050-058-095>099-190700-
WEST-CENTRAL ILLINOIS

CITY           SKY/WX    TMP DP  RH WIND       PRES   REMARKS
QUINCY         CLEAR     58  51  78 E7        30.09R
GALESBURG*     CLEAR     55  49  81 E5        30.11S
MACOMB*        CLEAR     49  48  94 CALM      30.13R
JACKSONVILLE*  CLEAR     53  49  87 E5        30.11S
PITTSFIELD*    CLEAR     54  51  92 CALM      30.11R
$$

ILZ028>032-037-038-041>044-048-051>054-059>061-190700-
CENTRAL ILLINOIS

CITY           SKY/WX    TMP DP  RH WIND       PRES   REMARKS
PONTIAC        CLEAR     55  55 100 E3        30.14S FOG
DECATUR        CLEAR     51  46  83 CALM      30.12S
PEORIA         CLEAR     58  52  80 E9        30.12S
6HR MIN TEMP:  58; 6HR MAX TEMP:  68;

LACON*         CLEAR     54  52  93 E8        30.12F FOG
LINCOLN*       CLEAR     51  47  86 CALM      30.10S
SPRINGFIELD    CLEAR     52  48  86 CALM      30.11S
6HR MIN TEMP:  51; 6HR MAX TEMP:  67;

TAYLORVILLE    CLEAR     54  48  82 E5        30.10S
$$

ILZ033-039-045-046-055>057-062-063-190700-
EAST-CENTRAL ILLINOIS

CITY           SKY/WX    TMP DP  RH WIND       PRES   REMARKS
CHAMPAIGN      CLEAR     51  48  89 E7        30.13S
DANVILLE*      CLEAR     54  49  85 E5        30.12R
RANTOUL*       CLEAR     55  49  78 NE3       30.14S
MATTOON        CLEAR     53  49  86 CALM      30.11S
PARIS*         CLEAR     52  51  95 E3        30.13S
$$

ILZ079-100>102-190700-
SOUTHWEST ILLINOIS

CITY           SKY/WX    TMP DP  RH WIND       PRES   REMARKS
ALTON          CLEAR     54  53  96 CALM      30.09S FOG
BELLEVILLE     CLEAR     55  55 100 CALM      30.07F FOG
CAHOKIA*       CLEAR     55  53  93 CALM      30.08S FOG
SPARTA*        CLEAR     53  51  94 CALM      30.08F
$$

ILZ064>066-069>071-074>076-080>082-084>086-088>090-092>094-190700-
SOUTH-CENTRAL ILLINOIS

CITY           SKY/WX    TMP DP  RH WIND       PRES   REMARKS
CARBONDALE     CLEAR     54  53  97 CALM      30.07S FOG
6HR MIN TEMP:  53; 6HR MAX TEMP:  67;

CAIRO*         CLEAR     59  54  84 CALM      30.06R
EFFINGHAM*     CLEAR     52  50  92 CALM      30.11R
MARION         CLEAR     54  52  94 CALM      30.08S
MT. VERNON     CLEAR     57  50  77 N3        30.09S
CENTRALIA*     CLEAR     52  50  93 CALM      30.09R FOG
SALEM*         CLEAR     60  56  85 CALM      30.10R
METROPOLIS*    CLEAR     55  55 100 CALM      30.05S
$$

ILZ067-068-072-073-078-083-087-091-190700-
SOUTHEAST ILLINOIS

CITY           SKY/WX    TMP DP  RH WIND       PRES   REMARKS
LAWRENCEVILLE  CLEAR     53  51  93 NE5       30.11R
FLORA*         CLEAR     54  52  95 CALM      30.10S
FAIRFIELD*     CLEAR    N/A N/A N/A CALM      30.08S
HARRISBURG*    CLEAR     56  55  94 CALM      30.09R
ROBINSON*      FOG       49  49  99 CALM      30.12R VSB 1/2
CARMI*         CLEAR     54  53  99 NE3       30.07F
$$

ABBREVIATIONS USED IN REMARKS
   TC - TEMPERATURE IN CELSIUS
  WCI - WIND CHILL INDEX
   HX - HEAT INDEX
  VSB - VISIBILITY
$$



USA.gov is the U.S. government's official web portal to all federal, state and local government web resources and services.